TimeEST,TemperatureF,Dew PointF,Humidity,Sea Level PressureIn,VisibilityMPH,Wind Direction,Wind SpeedMPH,Gust SpeedMPH,PrecipitationIn,Events,Conditions,WindDirDegrees,DateUTC
1:53 AM,33.1,24.1,70,30.28,10.0,NW,11.5,-,N/A,,Scattered Clouds,310,2012-12-30 06:53:00
2:53 AM,32.0,24.1,73,30.30,10.0,WNW,9.2,-,N/A,,Clear,300,2012-12-30 07:53:00
3:53 AM,32.0,24.1,73,30.31,10.0,NNW,10.4,18.4,N/A,,Clear,330,2012-12-30 08:53:00
4:53 AM,32.0,21.9,66,30.31,10.0,NNW,9.2,-,N/A,,Clear,330,2012-12-30 09:53:00
5:53 AM,30.9,21.9,69,30.33,10.0,NNW,8.1,-,N/A,,Clear,330,2012-12-30 10:53:00
6:53 AM,30.9,21.9,69,30.37,10.0,NW,9.2,-,N/A,,Clear,320,2012-12-30 11:53:00
7:53 AM,30.0,21.0,69,30.38,10.0,NNW,9.2,-,N/A,,Clear,330,2012-12-30 12:53:00
8:53 AM,32.0,21.0,64,30.42,10.0,NNW,13.8,-,N/A,,Clear,340,2012-12-30 13:53:00
9:53 AM,34.0,21.0,59,30.45,10.0,NNW,6.9,-,N/A,,Clear,340,2012-12-30 14:53:00
10:53 AM,37.0,21.0,52,30.48,10.0,WNW,5.8,-,N/A,,Clear,300,2012-12-30 15:53:00
11:53 AM,41.0,21.0,45,30.46,10.0,NNW,10.4,-,N/A,,Clear,340,2012-12-30 16:53:00
12:53 PM,43.0,21.0,42,30.44,10.0,WNW,9.2,-,N/A,,Clear,290,2012-12-30 17:53:00
1:53 PM,46.0,21.0,37,30.40,10.0,NW,8.1,-,N/A,,Clear,320,2012-12-30 18:53:00
2:53 PM,46.9,19.9,34,30.40,10.0,WNW,4.6,-,N/A,,Clear,290,2012-12-30 19:53:00
3:53 PM,48.0,19.0,32,30.40,10.0,WNW,3.5,-,N/A,,Clear,300,2012-12-30 20:53:00
4:53 PM,48.0,21.0,34,30.41,10.0,WNW,4.6,-,N/A,,Clear,300,2012-12-30 21:53:00
5:53 PM,39.0,28.0,65,30.42,10.0,Calm,Calm,-,N/A,,Clear,0,2012-12-30 22:53:00
6:53 PM,33.1,26.1,75,30.44,10.0,Calm,Calm,-,N/A,,Clear,0,2012-12-30 23:53:00
7:53 PM,30.0,25.0,82,30.44,10.0,Calm,Calm,-,N/A,,Clear,0,2012-12-31 00:53:00
8:53 PM,28.0,24.1,85,30.43,10.0,Calm,Calm,-,N/A,,Clear,0,2012-12-31 01:53:00
9:53 PM,27.0,23.0,85,30.42,10.0,Calm,Calm,-,N/A,,Clear,0,2012-12-31 02:53:00
10:53 PM,27.0,24.1,89,30.44,10.0,Calm,Calm,-,N/A,,Clear,0,2012-12-31 03:53:00
11:53 PM,27.0,25.0,92,30.42,10.0,Calm,Calm,-,N/A,,Clear,0,2012-12-31 04:53:00